SIA1 WSSS-WADD

Flight info

Callsign SIA1
Flight time 2h 7m
Altitude 39000
Route IDBUD1A IDBUD T24 SURGA M635 UDONO
Aircraft A346/H-SDE2E3FGHIJ3J4J5M1RWXY/LB1D1

Departure

Time 2026-05-07 22:58
Airport Singapore Changi Airport (WSSS)

Arrival

Time 2026-05-08 01:06
Airport Denpasar I Gusti Ngurah Rai International Airport (WADD)
Time Latitude Longitude Altitude Speed Heading
2026-05-07 22:29 1.35163 103.98337 39 ft 0 kts 112°
2026-05-07 22:46 1.35163 103.98336 39 ft 1 kts 112°
2026-05-07 22:46 1.35172 103.98313 39 ft 4 kts 112°
2026-05-07 22:47 1.35182 103.98292 37 ft 4 kts 120°
2026-05-07 22:47 1.35195 103.98276 36 ft 4 kts 153°
2026-05-07 22:47 1.35212 103.98273 36 ft 4 kts 191°
2026-05-07 22:47 1.35237 103.98281 36 ft 4 kts 204°
2026-05-07 22:48 1.35255 103.98289 34 ft 1 kts 203°
2026-05-07 22:48 1.35258 103.98290 36 ft 0 kts 203°
2026-05-07 22:48 1.35258 103.98291 36 ft 0 kts 203°
2026-05-07 22:50 1.35253 103.98289 34 ft 2 kts 203°
2026-05-07 22:51 1.35232 103.98280 36 ft 5 kts 203°
2026-05-07 22:51 1.35184 103.98259 37 ft 9 kts 203°
2026-05-07 22:51 1.35129 103.98214 39 ft 12 kts 238°
2026-05-07 22:51 1.35088 103.98133 39 ft 14 kts 233°
2026-05-07 22:52 1.34999 103.98082 39 ft 16 kts 203°
2026-05-07 22:52 1.34885 103.98034 39 ft 19 kts 203°
2026-05-07 22:52 1.34763 103.97982 39 ft 12 kts 202°
2026-05-07 22:52 1.34690 103.98007 39 ft 13 kts 117°
2026-05-07 22:53 1.34656 103.98101 39 ft 16 kts 112°
2026-05-07 22:53 1.34604 103.98225 45 ft 23 kts 112°
2026-05-07 22:53 1.34532 103.98390 51 ft 27 kts 114°
2026-05-07 22:53 1.34453 103.98572 39 ft 30 kts 112°
2026-05-07 22:54 1.34373 103.98767 39 ft 31 kts 112°
2026-05-07 22:54 1.34319 103.98889 39 ft 9 kts 133°
2026-05-07 22:54 1.34254 103.98886 39 ft 11 kts 204°
2026-05-07 22:54 1.34173 103.98848 39 ft 16 kts 202°
2026-05-07 22:55 1.34057 103.98800 39 ft 19 kts 202°
2026-05-07 22:55 1.33926 103.98744 39 ft 21 kts 203°
2026-05-07 22:55 1.33782 103.98683 39 ft 23 kts 203°
2026-05-07 22:55 1.33626 103.98616 39 ft 25 kts 203°
2026-05-07 22:56 1.33517 103.98571 39 ft 26 kts 201°
2026-05-07 22:56 1.33289 103.98475 39 ft 28 kts 204°
2026-05-07 22:56 1.33109 103.98399 39 ft 28 kts 203°
2026-05-07 22:56 1.32984 103.98347 39 ft 27 kts 202°
2026-05-07 22:57 1.32883 103.98307 39 ft 12 kts 188°
2026-05-07 22:57 1.32825 103.98359 39 ft 14 kts 100°
2026-05-07 22:57 1.32856 103.98454 39 ft 16 kts 64°
2026-05-07 22:57 1.32965 103.98534 37 ft 37 kts 22°
2026-05-07 22:58 1.33427 103.98732 39 ft 105 kts 22°
2026-05-07 22:58 1.34285 103.99090 39 ft 161 kts 22°
2026-05-07 22:58 1.35436 103.99590 231 ft 190 kts 22°
2026-05-07 22:58 1.36664 104.00113 876 ft 192 kts 22°
2026-05-07 22:59 1.37907 104.00633 1540 ft 196 kts 23°
2026-05-07 22:59 1.39183 104.01166 2135 ft 205 kts 23°
2026-05-07 22:59 1.40551 104.01739 2577 ft 221 kts 23°
2026-05-07 22:59 1.42010 104.02353 3056 ft 233 kts 23°
2026-05-07 23:00 1.43515 104.02986 3685 ft 236 kts 23°
2026-05-07 23:00 1.45034 104.03626 4349 ft 237 kts 23°
2026-05-07 23:00 1.46488 104.04402 4968 ft 239 kts 39°
2026-05-07 23:00 1.47450 104.05719 5544 ft 240 kts 70°
2026-05-07 23:01 1.47583 104.07371 6147 ft 241 kts 101°
2026-05-07 23:01 1.46854 104.08887 6447 ft 252 kts 134°
2026-05-07 23:01 1.45464 104.10037 6731 ft 267 kts 143°
2026-05-07 23:01 1.43940 104.11191 7077 ft 281 kts 141°
2026-05-07 23:02 1.42533 104.12575 7640 ft 285 kts 131°
2026-05-07 23:02 1.41105 104.13957 8096 ft 295 kts 156°
2026-05-07 23:02 1.39376 104.15043 8715 ft 292 kts 132°
2026-05-07 23:02 1.38169 104.16661 9552 ft 289 kts 123°
2026-05-07 23:03 1.37057 104.18350 10154 ft 293 kts 123°
2026-05-07 23:03 1.35875 104.20037 10558 ft 306 kts 126°
2026-05-07 23:03 1.34540 104.21807 10851 ft 323 kts 127°
2026-05-07 23:03 1.33122 104.23588 11141 ft 340 kts 128°
2026-05-07 23:04 1.31582 104.25460 11435 ft 357 kts 129°
2026-05-07 23:04 1.29950 104.27406 11724 ft 373 kts 129°
2026-05-07 23:04 1.28242 104.29418 12183 ft 383 kts 129°
2026-05-07 23:04 1.26506 104.31450 12855 ft 386 kts 129°
2026-05-07 23:05 1.24750 104.33498 13551 ft 389 kts 129°
2026-05-07 23:05 1.22978 104.35562 14161 ft 392 kts 129°
2026-05-07 23:05 1.21191 104.37642 14734 ft 396 kts 129°
2026-05-07 23:05 1.19388 104.39738 15298 ft 399 kts 129°
2026-05-07 23:06 1.17563 104.41859 15860 ft 403 kts 129°
2026-05-07 23:06 1.15723 104.43997 16419 ft 407 kts 129°
2026-05-07 23:06 1.13863 104.46156 16957 ft 410 kts 129°
2026-05-07 23:06 1.12017 104.48299 17496 ft 414 kts 129°
2026-05-07 23:07 1.10127 104.50494 18021 ft 417 kts 129°
2026-05-07 23:07 1.08220 104.52709 18488 ft 421 kts 129°
2026-05-07 23:07 1.06299 104.54938 18914 ft 424 kts 129°
2026-05-07 23:07 1.04367 104.57182 19385 ft 426 kts 129°
2026-05-07 23:08 1.02424 104.59438 19840 ft 429 kts 129°
2026-05-07 23:08 1.00470 104.61706 20293 ft 431 kts 129°
2026-05-07 23:08 0.98524 104.63965 20736 ft 434 kts 129°
2026-05-07 23:08 0.96545 104.66261 21170 ft 436 kts 129°
2026-05-07 23:09 0.94556 104.68569 21608 ft 439 kts 129°
2026-05-07 23:09 0.92560 104.70886 22035 ft 441 kts 129°
2026-05-07 23:09 0.90552 104.73217 22455 ft 444 kts 129°
2026-05-07 23:09 0.88530 104.75564 22869 ft 446 kts 129°
2026-05-07 23:10 0.86494 104.77927 23264 ft 449 kts 129°
2026-05-07 23:10 0.84471 104.80275 23617 ft 451 kts 129°
2026-05-07 23:10 0.82418 104.82657 23942 ft 453 kts 129°
2026-05-07 23:10 0.80352 104.85056 24271 ft 455 kts 129°
2026-05-07 23:11 0.78279 104.87462 24593 ft 458 kts 129°
2026-05-07 23:11 0.76194 104.89881 24913 ft 460 kts 130°
2026-05-07 23:11 0.74099 104.92313 25234 ft 462 kts 130°
2026-05-07 23:11 0.71992 104.94757 25572 ft 464 kts 130°
2026-05-07 23:12 0.69876 104.97213 25869 ft 466 kts 130°
2026-05-07 23:12 0.67753 104.99676 26177 ft 469 kts 130°
2026-05-07 23:12 0.65620 105.02152 26488 ft 471 kts 130°
2026-05-07 23:12 0.63475 105.04641 26795 ft 473 kts 130°
2026-05-07 23:13 0.61322 105.07139 27087 ft 475 kts 130°
2026-05-07 23:13 0.59158 105.09651 27401 ft 477 kts 130°
2026-05-07 23:13 0.56982 105.12175 27690 ft 479 kts 130°
2026-05-07 23:13 0.54782 105.14728 27986 ft 481 kts 130°
2026-05-07 23:14 0.52573 105.17290 28281 ft 483 kts 130°
2026-05-07 23:14 0.50399 105.19813 28646 ft 483 kts 130°
2026-05-07 23:14 0.48207 105.22356 29096 ft 481 kts 130°
2026-05-07 23:14 0.46021 105.24893 29536 ft 480 kts 130°
2026-05-07 23:15 0.43842 105.27420 29942 ft 479 kts 130°
2026-05-07 23:15 0.41668 105.29942 30284 ft 478 kts 130°
2026-05-07 23:15 0.39497 105.32461 30626 ft 478 kts 130°
2026-05-07 23:15 0.37328 105.34977 30964 ft 477 kts 130°
2026-05-07 23:16 0.35160 105.37493 31298 ft 477 kts 130°
2026-05-07 23:16 0.32998 105.40001 31653 ft 476 kts 130°
2026-05-07 23:16 0.30835 105.42511 31976 ft 476 kts 130°
2026-05-07 23:16 0.28665 105.45028 32328 ft 475 kts 130°
2026-05-07 23:17 0.26506 105.47533 32680 ft 475 kts 130°
2026-05-07 23:17 0.24348 105.50037 33034 ft 474 kts 130°
2026-05-07 23:17 0.22193 105.52537 33394 ft 473 kts 130°
2026-05-07 23:17 0.20046 105.55027 33742 ft 473 kts 130°
2026-05-07 23:18 0.17925 105.57488 34054 ft 473 kts 130°
2026-05-07 23:18 0.15775 105.59982 34355 ft 472 kts 130°
2026-05-07 23:18 0.13635 105.62465 34679 ft 471 kts 130°
2026-05-07 23:18 0.11493 105.64949 35011 ft 470 kts 130°
2026-05-07 23:19 0.09359 105.67425 35341 ft 469 kts 130°
2026-05-07 23:19 0.07233 105.69891 35669 ft 467 kts 130°
2026-05-07 23:19 0.05107 105.72357 35975 ft 466 kts 130°
2026-05-07 23:19 0.02989 105.74814 36281 ft 465 kts 130°
2026-05-07 23:20 0.00876 105.77265 36592 ft 465 kts 130°
2026-05-07 23:20 -0.01230 105.79709 36923 ft 464 kts 130°
2026-05-07 23:20 -0.03339 105.82155 37233 ft 463 kts 130°
2026-05-07 23:20 -0.05414 105.84562 37510 ft 463 kts 130°
2026-05-07 23:21 -0.07520 105.87005 37755 ft 464 kts 130°
2026-05-07 23:21 -0.09644 105.89469 37988 ft 465 kts 130°
2026-05-07 23:21 -0.11759 105.91923 38212 ft 466 kts 130°
2026-05-07 23:21 -0.13876 105.94379 38422 ft 466 kts 130°
2026-05-07 23:22 -0.16001 105.96844 38603 ft 467 kts 130°
2026-05-07 23:22 -0.18129 105.99312 38787 ft 468 kts 130°
2026-05-07 23:22 -0.20257 106.01782 38841 ft 469 kts 130°
2026-05-07 23:23 -0.24494 106.06697 38851 ft 469 kts 130°
2026-05-07 23:23 -0.28750 106.11634 38849 ft 468 kts 130°
2026-05-07 23:24 -0.33014 106.16580 38854 ft 469 kts 130°
2026-05-07 23:24 -0.37271 106.21519 38853 ft 469 kts 130°
2026-05-07 23:25 -0.41532 106.26462 38853 ft 468 kts 130°
2026-05-07 23:25 -0.45815 106.31432 38856 ft 469 kts 130°
2026-05-07 23:26 -0.50073 106.36372 38855 ft 469 kts 130°
2026-05-07 23:26 -0.54334 106.41317 38852 ft 469 kts 130°
2026-05-07 23:27 -0.60730 106.48737 38851 ft 469 kts 130°
2026-05-07 23:27 -0.64971 106.53659 38850 ft 469 kts 130°
2026-05-07 23:28 -0.69237 106.58610 38854 ft 470 kts 130°
2026-05-07 23:28 -0.73509 106.63567 38853 ft 470 kts 130°
2026-05-07 23:29 -0.77782 106.68525 38854 ft 470 kts 130°
2026-05-07 23:29 -0.82026 106.73451 38853 ft 470 kts 130°
2026-05-07 23:30 -0.86292 106.78402 38854 ft 470 kts 130°
2026-05-07 23:30 -0.90566 106.83361 38853 ft 470 kts 130°
2026-05-07 23:31 -0.94834 106.88314 38856 ft 470 kts 130°
2026-05-07 23:31 -0.99103 106.93269 38852 ft 470 kts 130°
2026-05-07 23:32 -1.03376 106.98229 38856 ft 470 kts 130°
2026-05-07 23:32 -1.07619 107.03154 38855 ft 470 kts 130°
2026-05-07 23:33 -1.11896 107.08118 38853 ft 470 kts 130°
2026-05-07 23:33 -1.16166 107.13074 38852 ft 470 kts 130°
2026-05-07 23:34 -1.20442 107.18036 38854 ft 470 kts 130°
2026-05-07 23:34 -1.24713 107.22994 38854 ft 470 kts 130°
2026-05-07 23:35 -1.28958 107.27920 38857 ft 470 kts 130°
2026-05-07 23:35 -1.33233 107.32881 38848 ft 470 kts 130°
2026-05-07 23:36 -1.37506 107.37842 38846 ft 470 kts 130°
2026-05-07 23:36 -1.41785 107.42805 38848 ft 470 kts 130°
2026-05-07 23:37 -1.46059 107.47759 38851 ft 470 kts 130°
2026-05-07 23:37 -1.50330 107.52707 38849 ft 469 kts 130°
2026-05-07 23:38 -1.54599 107.57654 38846 ft 469 kts 130°
2026-05-07 23:38 -1.58865 107.62598 38849 ft 469 kts 130°
2026-05-07 23:39 -1.63132 107.67542 38849 ft 468 kts 130°
2026-05-07 23:39 -1.67365 107.72449 38848 ft 469 kts 130°
2026-05-07 23:40 -1.71635 107.77399 38847 ft 469 kts 130°
2026-05-07 23:40 -1.75188 107.81516 38858 ft 470 kts 130°
2026-05-07 23:41 -1.80168 107.87288 38845 ft 470 kts 129°
2026-05-07 23:41 -1.83759 107.91450 38846 ft 471 kts 129°
2026-05-07 23:42 -1.88038 107.96411 38858 ft 471 kts 129°
2026-05-07 23:42 -1.92303 108.01354 38843 ft 472 kts 129°
2026-05-07 23:43 -1.96596 108.06330 38844 ft 472 kts 129°
2026-05-07 23:43 -2.00890 108.11308 38856 ft 472 kts 129°
2026-05-07 23:44 -2.05188 108.16291 38843 ft 472 kts 129°
2026-05-07 23:44 -2.09479 108.21271 38843 ft 472 kts 129°
2026-05-07 23:45 -2.13744 108.26216 38858 ft 472 kts 129°
2026-05-07 23:45 -2.18041 108.31198 38856 ft 473 kts 129°
2026-05-07 23:46 -2.22338 108.36179 38845 ft 473 kts 129°
2026-05-07 23:46 -2.26642 108.41167 38843 ft 473 kts 129°
2026-05-07 23:47 -2.30942 108.46150 38849 ft 473 kts 129°
2026-05-07 23:47 -2.35257 108.51155 38846 ft 474 kts 129°
2026-05-07 23:48 -2.39572 108.56158 38849 ft 474 kts 129°
2026-05-07 23:48 -2.43861 108.61129 38851 ft 474 kts 129°
2026-05-07 23:49 -2.48178 108.66136 38854 ft 475 kts 129°
2026-05-07 23:49 -2.52508 108.71151 38852 ft 476 kts 129°
2026-05-07 23:50 -2.56847 108.76168 38851 ft 476 kts 129°
2026-05-07 23:50 -2.61191 108.81188 38856 ft 477 kts 129°
2026-05-07 23:51 -2.65542 108.86219 38841 ft 477 kts 129°
2026-05-07 23:51 -2.69898 108.91255 38855 ft 478 kts 129°
2026-05-07 23:52 -2.74233 108.96266 38855 ft 479 kts 129°
2026-05-07 23:52 -2.78604 109.01320 38846 ft 479 kts 129°
2026-05-07 23:53 -2.82974 109.06371 38855 ft 479 kts 129°
2026-05-07 23:53 -2.87318 109.11394 38855 ft 480 kts 129°
2026-05-07 23:54 -2.91685 109.16456 38841 ft 480 kts 129°
2026-05-07 23:54 -2.96044 109.21526 38842 ft 480 kts 129°
2026-05-07 23:55 -3.00403 109.26596 38856 ft 480 kts 129°
2026-05-07 23:55 -3.04764 109.31665 38853 ft 480 kts 129°
2026-05-07 23:56 -3.09134 109.36743 38840 ft 480 kts 129°
2026-05-07 23:56 -3.13489 109.41805 38853 ft 479 kts 129°
2026-05-07 23:57 -3.17820 109.46839 38856 ft 479 kts 129°
2026-05-07 23:57 -3.22182 109.51909 38856 ft 479 kts 129°
2026-05-07 23:58 -3.26530 109.56966 38852 ft 478 kts 129°
2026-05-07 23:58 -3.30878 109.62023 38853 ft 478 kts 129°
2026-05-07 23:59 -3.35222 109.67075 38840 ft 478 kts 129°
2026-05-07 23:59 -3.39542 109.72101 38854 ft 478 kts 129°
2026-05-08 00:00 -3.43888 109.77157 38854 ft 478 kts 129°
2026-05-08 00:00 -3.48238 109.82218 38844 ft 478 kts 129°
2026-05-08 00:01 -3.52554 109.87241 38854 ft 478 kts 129°
2026-05-08 00:01 -3.56907 109.92306 38852 ft 478 kts 129°
2026-05-08 00:02 -3.61251 109.97364 38842 ft 478 kts 129°
2026-05-08 00:02 -3.65596 110.02421 38853 ft 479 kts 129°
2026-05-08 00:03 -3.69945 110.07485 38852 ft 479 kts 129°
2026-05-08 00:03 -3.74291 110.12546 38856 ft 479 kts 129°
2026-05-08 00:04 -3.78614 110.17580 38846 ft 479 kts 129°
2026-05-08 00:04 -3.82965 110.22648 38858 ft 478 kts 129°
2026-05-08 00:05 -3.87309 110.27709 38844 ft 478 kts 129°
2026-05-08 00:05 -3.91636 110.32748 38854 ft 478 kts 129°
2026-05-08 00:06 -3.95968 110.37809 38843 ft 478 kts 128°
2026-05-08 00:06 -4.00069 110.43038 38858 ft 477 kts 126°
2026-05-08 00:07 -4.04130 110.48310 38858 ft 477 kts 126°
2026-05-08 00:07 -4.08194 110.53581 38857 ft 477 kts 126°
2026-05-08 00:08 -4.12258 110.58849 38857 ft 477 kts 126°
2026-05-08 00:08 -4.16320 110.64113 38854 ft 477 kts 126°
2026-05-08 00:09 -4.20363 110.69352 38858 ft 478 kts 126°
2026-05-08 00:09 -4.24433 110.74628 38858 ft 478 kts 126°
2026-05-08 00:10 -4.28501 110.79904 38861 ft 478 kts 126°
2026-05-08 00:10 -4.32580 110.85192 38863 ft 478 kts 127°
2026-05-08 00:11 -4.36652 110.90471 38866 ft 478 kts 127°
2026-05-08 00:11 -4.40696 110.95717 38866 ft 478 kts 127°
2026-05-08 00:12 -4.44771 111.01003 38856 ft 478 kts 127°
2026-05-08 00:12 -4.48853 111.06298 38862 ft 479 kts 127°
2026-05-08 00:13 -4.52930 111.11586 38866 ft 479 kts 127°
2026-05-08 00:13 -4.57012 111.16882 38852 ft 479 kts 127°
2026-05-08 00:14 -4.61073 111.22153 38863 ft 480 kts 127°
2026-05-08 00:14 -4.65170 111.27457 38866 ft 480 kts 128°
2026-05-08 00:15 -4.69271 111.32751 38867 ft 481 kts 128°
2026-05-08 00:15 -4.73380 111.38053 38867 ft 481 kts 128°
2026-05-08 00:16 -4.77497 111.43367 38856 ft 482 kts 128°
2026-05-08 00:16 -4.81589 111.48651 38866 ft 482 kts 128°
2026-05-08 00:17 -4.85704 111.53965 38863 ft 481 kts 128°
2026-05-08 00:17 -4.89819 111.59280 38871 ft 482 kts 128°
2026-05-08 00:18 -4.93911 111.64568 38866 ft 482 kts 128°
2026-05-08 00:18 -4.98022 111.69880 38870 ft 481 kts 128°
2026-05-08 00:19 -5.02134 111.75194 38854 ft 481 kts 128°
2026-05-08 00:19 -5.06239 111.80500 38869 ft 481 kts 128°
2026-05-08 00:20 -5.10353 111.85819 38866 ft 481 kts 128°
2026-05-08 00:20 -5.14462 111.91135 38873 ft 481 kts 128°
2026-05-08 00:21 -5.18576 111.96456 38871 ft 481 kts 128°
2026-05-08 00:21 -5.22657 112.01738 38868 ft 481 kts 128°
2026-05-08 00:22 -5.26763 112.07052 38872 ft 481 kts 128°
2026-05-08 00:22 -5.30871 112.12371 38872 ft 481 kts 128°
2026-05-08 00:23 -5.34976 112.17688 38872 ft 481 kts 128°
2026-05-08 00:23 -5.39084 112.23008 38871 ft 481 kts 128°
2026-05-08 00:24 -5.43188 112.28325 38872 ft 481 kts 128°
2026-05-08 00:24 -5.47268 112.33612 38871 ft 481 kts 128°
2026-05-08 00:25 -5.51373 112.38933 38872 ft 481 kts 128°
2026-05-08 00:25 -5.55475 112.44251 38871 ft 481 kts 128°
2026-05-08 00:26 -5.59578 112.49573 38872 ft 481 kts 128°
2026-05-08 00:26 -5.63680 112.54895 38875 ft 481 kts 128°
2026-05-08 00:27 -5.67085 112.59313 38872 ft 481 kts 128°
2026-05-08 00:27 -5.71852 112.65500 38873 ft 481 kts 128°
2026-05-08 00:28 -5.75959 112.70832 38873 ft 482 kts 128°
2026-05-08 00:28 -5.79400 112.75301 38875 ft 482 kts 128°
2026-05-08 00:29 -5.83480 112.80600 38875 ft 482 kts 128°
2026-05-08 00:29 -5.87588 112.85937 38874 ft 482 kts 129°
2026-05-08 00:30 -5.91704 112.91284 38875 ft 482 kts 128°
2026-05-08 00:30 -5.95807 112.96616 38880 ft 482 kts 128°
2026-05-08 00:31 -5.99916 113.01959 38879 ft 482 kts 128°
2026-05-08 00:31 -6.04011 113.07285 38874 ft 482 kts 128°
2026-05-08 00:32 -6.08118 113.12625 38875 ft 482 kts 128°
2026-05-08 00:32 -6.12224 113.17967 38875 ft 482 kts 128°
2026-05-08 00:33 -6.16325 113.23303 38875 ft 481 kts 129°
2026-05-08 00:33 -6.20437 113.28623 38870 ft 481 kts 130°
2026-05-08 00:34 -6.24919 113.33613 38873 ft 480 kts 136°
2026-05-08 00:34 -6.29866 113.38049 38870 ft 479 kts 143°
2026-05-08 00:35 -6.35232 113.42032 38872 ft 479 kts 146°
2026-05-08 00:35 -6.40663 113.45937 38869 ft 479 kts 146°
2026-05-08 00:36 -6.46049 113.49815 38868 ft 479 kts 146°
2026-05-08 00:36 -6.51470 113.53727 38875 ft 479 kts 146°
2026-05-08 00:37 -6.56894 113.57643 38875 ft 479 kts 146°
2026-05-08 00:38 -6.65025 113.63517 38875 ft 479 kts 145°
2026-05-08 00:38 -6.70442 113.67431 38877 ft 479 kts 145°
2026-05-08 00:39 -6.75834 113.71328 38874 ft 479 kts 145°
2026-05-08 00:39 -6.81264 113.75254 38876 ft 479 kts 145°
2026-05-08 00:40 -6.86694 113.79179 38876 ft 480 kts 145°
2026-05-08 00:40 -6.92124 113.83107 38874 ft 480 kts 145°
2026-05-08 00:41 -6.97463 113.87074 38875 ft 480 kts 142°
2026-05-08 00:41 -7.02447 113.91573 38874 ft 481 kts 136°
2026-05-08 00:42 -7.06976 113.96553 38875 ft 482 kts 132°
2026-05-08 00:42 -7.11381 114.01587 38295 ft 477 kts 132°
2026-05-08 00:42 -7.13600 114.04119 37191 ft 487 kts 132°
2026-05-08 00:43 -7.15873 114.06707 36157 ft 496 kts 131°
2026-05-08 00:43 -7.18171 114.09325 35323 ft 500 kts 131°
2026-05-08 00:43 -7.20453 114.11926 34586 ft 502 kts 131°
2026-05-08 00:43 -7.22772 114.14571 33866 ft 504 kts 131°
2026-05-08 00:44 -7.25097 114.17227 33048 ft 506 kts 131°
2026-05-08 00:44 -7.27428 114.19891 32231 ft 507 kts 131°
2026-05-08 00:44 -7.29772 114.22567 31422 ft 509 kts 131°
2026-05-08 00:44 -7.32122 114.25250 30617 ft 511 kts 132°
2026-05-08 00:45 -7.34488 114.27949 29799 ft 512 kts 132°
2026-05-08 00:45 -7.36852 114.30642 28862 ft 514 kts 132°
2026-05-08 00:45 -7.39223 114.33343 28066 ft 512 kts 132°
2026-05-08 00:45 -7.41566 114.36016 27564 ft 505 kts 132°
2026-05-08 00:46 -7.44079 114.38448 26978 ft 497 kts 145°
2026-05-08 00:46 -7.47149 114.39959 26350 ft 489 kts 165°
2026-05-08 00:46 -7.50483 114.40341 25791 ft 481 kts 184°
2026-05-08 00:46 -7.53772 114.39889 25284 ft 474 kts 191°
2026-05-08 00:47 -7.56959 114.39271 24700 ft 471 kts 192°
2026-05-08 00:47 -7.60175 114.38672 24117 ft 468 kts 191°
2026-05-08 00:47 -7.63388 114.38151 23575 ft 464 kts 189°
2026-05-08 00:47 -7.66579 114.37687 22951 ft 461 kts 189°
2026-05-08 00:48 -7.69763 114.37465 22311 ft 458 kts 179°
2026-05-08 00:48 -7.72906 114.37920 21752 ft 455 kts 167°
2026-05-08 00:48 -7.75873 114.38974 21196 ft 451 kts 158°
2026-05-08 00:48 -7.78749 114.40222 20662 ft 446 kts 158°
2026-05-08 00:49 -7.81578 114.41474 20088 ft 442 kts 158°
2026-05-08 00:49 -7.84348 114.42696 19606 ft 436 kts 158°
2026-05-08 00:49 -7.87109 114.43906 19204 ft 429 kts 158°
2026-05-08 00:49 -7.89824 114.45089 18810 ft 421 kts 158°
2026-05-08 00:50 -7.92492 114.46249 18435 ft 414 kts 158°
2026-05-08 00:50 -7.95117 114.47390 18050 ft 407 kts 158°
2026-05-08 00:50 -7.97701 114.48514 17596 ft 401 kts 158°
2026-05-08 00:50 -8.00248 114.49622 17170 ft 395 kts 158°
2026-05-08 00:51 -8.02754 114.50712 16757 ft 389 kts 158°
2026-05-08 00:51 -8.05225 114.51787 16359 ft 384 kts 158°
2026-05-08 00:51 -8.07661 114.52846 15972 ft 378 kts 158°
2026-05-08 00:51 -8.10067 114.53892 15601 ft 372 kts 158°
2026-05-08 00:52 -8.12436 114.54921 15227 ft 367 kts 158°
2026-05-08 00:52 -8.14735 114.55919 14862 ft 362 kts 158°
2026-05-08 00:52 -8.17036 114.56919 14517 ft 356 kts 158°
2026-05-08 00:52 -8.19302 114.57904 14180 ft 351 kts 158°
2026-05-08 00:53 -8.21536 114.58875 13837 ft 346 kts 158°
2026-05-08 00:53 -8.23731 114.59830 13481 ft 341 kts 157°
2026-05-08 00:53 -8.25895 114.60771 13111 ft 336 kts 157°
2026-05-08 00:53 -8.28029 114.61700 12751 ft 331 kts 157°
2026-05-08 00:54 -8.30102 114.62601 12397 ft 326 kts 157°
2026-05-08 00:54 -8.32197 114.63512 12061 ft 321 kts 157°
2026-05-08 00:54 -8.34210 114.64386 11729 ft 316 kts 157°
2026-05-08 00:54 -8.36218 114.65258 11403 ft 312 kts 157°
2026-05-08 00:55 -8.38197 114.66117 11082 ft 307 kts 156°
2026-05-08 00:55 -8.40146 114.66963 10773 ft 302 kts 156°
2026-05-08 00:55 -8.42072 114.67801 10483 ft 298 kts 156°
2026-05-08 00:55 -8.43972 114.68626 10163 ft 295 kts 156°
2026-05-08 00:56 -8.45836 114.69437 9808 ft 294 kts 156°
2026-05-08 00:56 -8.47714 114.70256 9433 ft 293 kts 156°
2026-05-08 00:56 -8.49581 114.71072 9089 ft 290 kts 156°
2026-05-08 00:56 -8.51426 114.71877 8756 ft 287 kts 156°
2026-05-08 00:57 -8.53251 114.72674 8414 ft 284 kts 155°
2026-05-08 00:57 -8.55003 114.73575 8097 ft 280 kts 147°
2026-05-08 00:57 -8.56574 114.74726 7782 ft 277 kts 140°
2026-05-08 00:57 -8.58044 114.75979 7453 ft 275 kts 139°
2026-05-08 00:58 -8.59466 114.77220 7139 ft 273 kts 138°
2026-05-08 00:58 -8.60916 114.78485 6806 ft 271 kts 139°
2026-05-08 00:58 -8.62324 114.79710 6486 ft 269 kts 138°
2026-05-08 00:58 -8.63737 114.80936 6160 ft 267 kts 139°
2026-05-08 00:59 -8.65143 114.82156 5833 ft 265 kts 139°
2026-05-08 00:59 -8.66542 114.83367 5507 ft 263 kts 138°
2026-05-08 00:59 -8.67930 114.84569 5203 ft 261 kts 138°
2026-05-08 00:59 -8.69308 114.85764 4919 ft 259 kts 138°
2026-05-08 01:00 -8.70665 114.86941 4695 ft 255 kts 138°
2026-05-08 01:00 -8.72006 114.88102 4425 ft 252 kts 138°
2026-05-08 01:00 -8.73312 114.89232 4135 ft 248 kts 138°
2026-05-08 01:00 -8.74596 114.90389 3857 ft 245 kts 130°
2026-05-08 01:01 -8.75369 114.91884 3581 ft 241 kts 103°
2026-05-08 01:01 -8.75483 114.93564 3324 ft 238 kts 92°
2026-05-08 01:01 -8.75487 114.95231 3056 ft 236 kts 92°
2026-05-08 01:01 -8.75491 114.96872 2936 ft 225 kts 92°
2026-05-08 01:02 -8.75498 114.98387 3013 ft 205 kts 92°
2026-05-08 01:02 -8.75484 114.99777 2998 ft 189 kts 90°
2026-05-08 01:02 -8.75435 115.01039 2944 ft 169 kts 90°
2026-05-08 01:02 -8.75391 115.02160 2720 ft 156 kts 89°
2026-05-08 01:03 -8.75354 115.03238 2384 ft 150 kts 90°
2026-05-08 01:03 -8.75325 115.04288 2108 ft 148 kts 92°
2026-05-08 01:03 -8.75288 115.05329 1870 ft 148 kts 91°
2026-05-08 01:03 -8.75252 115.06363 1666 ft 147 kts 90°
2026-05-08 01:04 -8.75216 115.07398 1484 ft 147 kts 90°
2026-05-08 01:04 -8.75182 115.08430 1341 ft 147 kts 91°
2026-05-08 01:04 -8.75132 115.09448 1169 ft 146 kts 91°
2026-05-08 01:04 -8.75092 115.10472 921 ft 145 kts 90°
2026-05-08 01:05 -8.75067 115.11497 696 ft 145 kts 91°
2026-05-08 01:05 -8.75040 115.12520 594 ft 145 kts 89°
2026-05-08 01:05 -8.74981 115.13545 455 ft 145 kts 88°
2026-05-08 01:05 -8.74919 115.14559 227 ft 144 kts 91°
2026-05-08 01:06 -8.74886 115.15572 59 ft 143 kts 90°
2026-05-08 01:06 -8.74856 115.16453 37 ft 96 kts 87°
2026-05-08 01:06 -8.74836 115.16899 36 ft 46 kts 88°
2026-05-08 01:06 -8.74825 115.17213 35 ft 44 kts 88°
2026-05-08 01:07 -8.74814 115.17518 37 ft 42 kts 88°
2026-05-08 01:07 -8.74806 115.17783 36 ft 28 kts 88°
2026-05-08 01:07 -8.74801 115.17976 38 ft 21 kts 89°
2026-05-08 01:07 -8.74785 115.18076 37 ft 15 kts 51°
2026-05-08 01:08 -8.74676 115.18094 40 ft 17 kts 347°
2026-05-08 01:08 -8.74626 115.17994 41 ft 19 kts 266°
2026-05-08 01:08 -8.74633 115.17848 41 ft 22 kts 268°
2026-05-08 01:08 -8.74639 115.17680 41 ft 25 kts 268°
2026-05-08 01:09 -8.74648 115.17495 41 ft 27 kts 268°
2026-05-08 01:09 -8.74656 115.17295 41 ft 29 kts 268°
2026-05-08 01:09 -8.74662 115.17109 40 ft 15 kts 268°
2026-05-08 01:09 -8.74665 115.17053 40 ft 3 kts 266°
2026-05-08 01:10 -8.74664 115.17020 40 ft 5 kts 289°
2026-05-08 01:10 -8.74628 115.17004 41 ft 8 kts 353°
2026-05-08 01:10 -8.74567 115.17001 41 ft 7 kts 358°
2026-05-08 01:10 -8.74550 115.17001 41 ft 0 kts 358°
2026-05-08 01:22 -8.75064 115.11631 668 ft 0 kts 91°